Location: Tom
(33.0437°N, 96.9452°W)
Time: 10:46:36
(UTC-06:00)

Envisat - Pass Details

Date: 29 January 2019
Orbit: 764 x 766 km, 98.2° (Epoch: 19 February)

Event Time Altitude Azimuth Distance (km) Brightness Sun altitude
Rises 19:44:06 0° 182° (S) 3,216 6.3 -22.6°
Reaches altitude 10° 19:46:29 10° 188° (S) 2,294 5.6 -23.1°
Maximum altitude 19:51:19 45° 261° (W) 1,036 4.1 -24.1°
Drops below altitude 10° 19:56:11 10° 334° (NNW) 2,306 5.7 -25.1°
Sets 19:58:35 0° 340° (NNW) 3,236 6.4 -25.6°
